Home > Time Zones > World Clock > Weather > Macau > Macau > Past weeks

Flag for Macau Weather past 2 weeks in Macau, Macau

Now
73 °F

Passing clouds.


Feels Like: 68 °F
Forecast: 72 / 77 °F
Wind: 5 mph from Southeast

Location: Taipa


UV Index: 7 (High)

Visibility: 6 mi


Pressure: 29.86 "Hg

Humidity: 100%

Dew point: 73 °F

Location of MacauLocation

Historic Weather in Macau

°F

Macau temperature yesterday

Maximum temperature yesterday: 79 °F (at 11:30 AM)
Minimum temperature yesterday: 73 °F (at 12:00 AM)
Average temperature yesterday: 76 °F

Past Weeks' High & Low Weather Summary

 TemperatureHumidityPressure
High81 °F (Apr 13, 2:00 PM)100% (Apr 4, 1:00 AM)30.07 "Hg (Apr 4, 1:00 AM)
Low64 °F (Apr 6, 5:30 PM)69% (Apr 5, 12:00 PM)29.80 "Hg (Apr 12, 5:00 PM)
Average72 °F88%29.94 "Hg
* Reported Apr 4 1:00 AM — Apr 19 1:00 AM, Macau, Weather by CustomWeather, © 2014

Note: Actual official high and low records may vary slightly from our data, if they occured in-between our weather recording intervals... More about our weather records

Advertising

Historic Weather Conditions — Data for Previous 24 hours

 ConditionsComfort  
Time TempWeatherWind HumidityBarometerVisibility
1:00 AM
Apr 19
73 °FPassing clouds.2 mph100%29.86 "HgN/A
12:30 AM73 °FPassing clouds.5 mph100%29.86 "Hg6 mi
12:00 AM73 °FPassing clouds.5 mph100%29.86 "Hg6 mi
11:30 PM
Apr 18
75 °FPassing clouds.6 mph94%29.86 "HgN/A
11:00 PM75 °FPassing clouds.6 mph94%29.89 "HgN/A
10:30 PM75 °FPassing clouds.6 mph94%29.89 "HgN/A
10:00 PM75 °FPassing clouds.7 mph94%29.86 "HgN/A
9:30 PM75 °FPassing clouds.6 mph94%29.86 "HgN/A
9:00 PM75 °FPassing clouds.5 mph94%29.86 "HgN/A
8:30 PM75 °FPassing clouds.6 mph94%29.86 "HgN/A
8:00 PM75 °FPassing clouds.7 mph94%29.86 "HgN/A
7:30 PM75 °FPassing clouds.8 mph94%29.86 "HgN/A
7:00 PM75 °FPassing clouds.8 mph94%29.86 "HgN/A
6:30 PM75 °FPassing clouds.9 mph94%29.83 "HgN/A
6:00 PM75 °FPassing clouds.8 mph94%29.83 "HgN/A
5:30 PM77 °FScattered clouds.8 mph89%29.83 "HgN/A
5:00 PM79 °FPassing clouds.8 mph79%29.83 "HgN/A
4:30 PM79 °FPassing clouds.7 mph79%29.83 "HgN/A
4:00 PM77 °FPassing clouds.7 mph89%29.86 "HgN/A
3:30 PM79 °FPassing clouds.6 mph84%29.86 "HgN/A
3:00 PM79 °FPassing clouds.7 mph84%29.86 "HgN/A
2:30 PM79 °FScattered clouds.8 mph79%29.86 "HgN/A
2:00 PM79 °FScattered clouds.8 mph84%29.89 "HgN/A
1:30 PM79 °FScattered clouds.7 mph84%29.89 "Hg6 mi
1:00 PM79 °FScattered clouds.7 mph84%29.92 "HgN/A
12:30 PM79 °FPassing clouds.7 mph79%29.92 "HgN/A
12:00 PM79 °FPassing clouds.5 mph79%29.92 "Hg6 mi
11:30 AM79 °FScattered clouds.5 mph79%29.92 "Hg6 mi
11:00 AM77 °FScattered clouds.3 mph83%29.95 "Hg6 mi
10:30 AM77 °FScattered clouds.3 mph83%29.95 "Hg6 mi
10:00 AM77 °FScattered clouds.5 mph83%29.92 "Hg4 mi
9:30 AM73 °FFog.6 mph94%29.92 "Hg3 mi
9:00 AM73 °FFog.3 mph94%29.92 "Hg3 mi
8:30 AM73 °FFog.7 mph94%29.92 "Hg2 mi
8:00 AM73 °FMild.6 mph94%29.92 "Hg1 mi
7:30 AM73 °FFog.6 mph94%29.89 "Hg2 mi
7:00 AM73 °FFog.5 mph94%29.89 "Hg3 mi
6:30 AM73 °FFog.1 mph94%29.89 "Hg3 mi
6:00 AM73 °FPassing clouds.2 mph94%29.86 "Hg4 mi
5:30 AM73 °FPassing clouds.1 mph94%29.86 "Hg6 mi
5:00 AM73 °FPassing clouds.No wind94%29.86 "Hg5 mi
4:30 AM73 °FPassing clouds.3 mph94%29.86 "Hg5 mi
4:00 AM73 °FPassing clouds.2 mph94%29.86 "Hg4 mi
3:30 AM73 °FPassing clouds.1 mph94%29.86 "Hg5 mi
3:00 AM73 °FPassing clouds.2 mph94%29.86 "Hg5 mi
2:30 AM73 °FPassing clouds.1 mph94%29.86 "Hg5 mi
2:00 AM73 °FPassing clouds.2 mph94%29.86 "Hg4 mi
Weather by CustomWeather, © 2014

See weather overview